Location: Unspecified
(38.0989°N, 0.6729°W)
Time: 03:56:02
(UTC+01:00)

ISS - Visible Passes

Search period start: 27 January 2022 00:00
Search period end: 06 February 2022 00:00
Orbit: 413 x 422 km, 51.6° (Epoch: 26 January)

Date Brightness Start Highest point End Pass type
(mag) Time Alt. Az. Time Alt. Az. Time Alt. Az.
30 Jan -1.4 19:55:09 10° NNW 19:56:15 14° N 19:56:15 14° N visible
31 Jan -1.5 19:07:30 10° N 19:08:51 12° NNE 19:10:12 10° NE visible
31 Jan -0.7 20:43:01 10° NW 20:43:16 12° NW 20:43:16 12° NW visible
01 Feb -2.4 19:55:05 10° NNW 19:57:26 27° N 19:57:26 27° N visible
02 Feb -2.2 19:07:12 10° NNW 19:09:46 20° NNE 19:11:43 13° ENE visible
02 Feb -1.2 20:43:28 10° WNW 20:44:41 20° WNW 20:44:41 20° WNW visible
03 Feb -3.9 19:55:17 10° NW 19:58:37 81° NE 19:59:08 60° ESE visible
04 Feb -3.4 19:07:13 10° NW 19:10:25 45° NE 19:13:38 10° ESE visible
04 Feb -1.0 20:44:41 10° W 20:46:48 17° SW 20:46:48 17° SW visible
05 Feb -1.9 19:55:55 10° WNW 19:58:54 30° SW 20:01:47 10° SSE visible
